Погода в Кюсюре

Погода в Кюсюре : погода сейчас, прогноз погоды и архив. Всё, что Вы хотите узнать о погоде в Кюсюре!

Хотите узнать прогноз погоды в Кюсюре? Тогда Вам сюда: Погода в Кюсюре

Поиск расширенной информации на нашем сайте:

Другие новости

Новости СМИ2

Главная страница сайта

Новости сайта

03.07.2017

Напоминаем, что на нашем специализированном сайте Метеоцентр.Азия вы можете получить высокодетализированные автоматические прогнозы погоды по пунктам России, СНГ и мира в авиационном формате (включающие направление и скорость ветра, видимость, явления погоды, количество и форму облачности, нижнюю и верхнюю границу облачности).


Погода в Кюсюре - сегодня

Время (UTC), дата Ветер
(°,м/с) 
Видим.   Явления Облачность Т
(°С)
Тd
(°С)
f(%) Тe
(°С)
Pmin
(гПа)
dP
(гПа)
Po
(мм)
O2
(г/м3)
Тmin Tmax R s Состояние
почвы
21 16.05.18 050 (СВ) 20000 м    4/0 средняя 
[Ac trans]
-8.6 -13.4 68 -13  1015.2  758  317           
00 17.05.18 020 (С) 20000 м    3/0 средняя 
[Ac trans]
-7.6 -13.1 65 -12  1015.3  0.2  758  316  -9.6    0.0  43  неравномерный
мокрый или
старый снег
100% 
03 17.05.18 040 (СВ) 20000 м    4/0 средняя, верхняя 
[Ac trans|Ci fib]
-6.3 -12.2 63 -10  1014.6  -0.7  758  314           
06 17.05.18 040 (СВ) 20000 м    4/0 средняя, верхняя 
[Ac trans|Ci fib]
-5.8 -11.5 64 -10  1014.5  -0.1  758  313           
09 17.05.18 040 (СВ) 20000 м    6/0 средняя, верхняя 
[Ac trans|Ci fib]
-6 -11.8 63 -10  1014.9  0.4  758  313           
12 17.05.18 030 (СВ) 20000 м    8/0 средняя, верхняя 
[Ac trans|Ci fib]
-7.7 -12.7 67 -12  1014.9  -0.1  758  315    -5.6       
15 17.05.18 030 (СВ) 20000 м    6/0 средняя, верхняя 
[Ac trans|Ci fib]
-9.8 -14 71 -13  1014.6  -0.3  758  318           
18 17.05.18 020 (С) 20000 м    6/0 средняя, верхняя 
[Ac trans|Ci fib]
-10.8 -14.4 75 -14  1014.4  -0.2  758  319           
21 17.05.18 030 (СВ) 20000 м    3/0 средняя, верхняя 
[Ac trans|Ci fib]
-8 -12.6 69 -12  1013.9  -0.5  757  316           
00 18.05.18 030 (СВ) 20000 м    3/0 средняя 
[Ac trans]
-5.2 -10.2 68 -8  1013.4  -0.4  757  312  -11      42  неравномерный
мокрый или
старый снег
100% 
03 18.05.18 100 (В) 35  0500 м    3/3 200 м средняя 
[Ac trans]
-9.1   1012.9  -0.5  757             
06 18.05.18 030 (СВ) 20000 м    4/0 средняя 
[Ac trans]
-3.1 -9 64 -6  1012.8  -0.1  757  309           
09 18.05.18 040 (СВ) 20000 м    4/0 средняя 
[Ac trans]
-3.3 -8.8 66 -7  1013  0.3  757  310           
12 18.05.18 030 (СВ) 20000 м    4/0 средняя 
[Ac trans]
-5.4 -9.2 75 -9  1013.1  757  312    -2.8       
15 18.05.18 020 (С) 20000 м    3/0 средняя 
[Ac trans]
-7.5 -10.1 82 -11  1012.6  -0.5  756  314           
18 18.05.18 030 (СВ) 20000 м    3/0 средняя 
[Ac trans]
-10.2 -11.5 90 -13  1012.3  -0.4  756  318           
21 18.05.18 020 (С) 20000 м    ясно 
-7.2 -10.6 77 -10  1011.9  -0.3  756  314           
00 19.05.18 010 (С) 20000 м    ясно 
-4.9 -9.8 68 -8  1011.3  -0.6  755  311  -10.4      42  неравномерный
мокрый или
старый снег
100% 
03 19.05.18 010 (С) 20000 м    ясно 
-2.4 -8.4 63 -5  1010.3  -1  755  308           
06 19.05.18 030 (СВ) 20000 м    ясно 
-1.8 -7.9 63 -5  1010  -0.3  754  307           
09 19.05.18 040 (СВ) 20000 м    3/0 верхняя 
[Ci fib]
-3 -8.4 66 -7  1010.3  0.3  755  308           
12 19.05.18 040 (СВ) 6{10}  20000 м    4/0 верхняя 
[Ci fib]
-4.6 -9.8 67 -9  1010.3  755  310    -1.8       
18 19.05.18 020 (С) 20000 м    8/0 средняя, верхняя 
[Ac trans|Ci fib]
-7.4 -11.3 74 -11  1010  0.2  754  314           
21 19.05.18 020 (С) 20000 м    10/0 средняя 
[Ac und]
-6.6 -10.7 73 -11  1010  754  313           
00 20.05.18 010 (С) 20000 м    8/0 средняя, верхняя 
[Ac trans|Ci fib]
-5 -9.5 71 -9  1010  754  311  -8.1      41  неравномерный
мокрый или
старый снег
100% 
Время (UTC), дата Ветер
(°,м/с) 
Видим.   Явления Облачность Т
(°С)
Тd
(°С)
f(%) Тe
(°С)
Pmin
(гПа)
dP
(гПа)
Po
(мм)
O2
(г/м3)
Тmin Tmax R s Состояние
почвы

Для получения пояснительной информации подведите курсор к названию столбца.

ПОГОДА в Кюсюре - архив

Всё, что Вы хотите узнать о погоде в Кюсюре - удобно и подробно!

Выберите нужную дату (начиная с 1 января 2015* года) и нажмите кнопку "Найти".
Будут отображены архивные сводки погоды по пункту Кюсюр, начиная с указанной даты.


Отображать данные в формате CSV (для использования в таблицах Excel)


Внимание! Наш архив погоды предназначен исключительно для личного некоммерческого использования в познавательных целях. Если Вам необходимы официальные справки о состоянии погоды (для производственных, юридических, коммерческих и т.п. целей), обращайтесь в органы Росгидромета.

*Примечание: данная дата относится к архиву по метеостанциям СССР (Россия, СНГ, Балтия).
Архив по метеостанциям Зарубежной Европы и Азии (кроме Китая) хранится 10 дней, по другим регионам земного шара (Китай, Африка, Америка, Австралия, Океания) - 1 день.

Кюсюр - район местоположения метеостанции


Название, широта, долгота, высота метеостанции:
Кюсюр 70.7°ш. 127.4°д. 33 м над ур. моря [Российская Федерация]

Дополнительная информация

В oтличие oт бoльшинства пoгoдных сайтoв мы публикуем пoдрoбную метеoинфoрмацию в детальнoм прoфессиoнальнoм фoрмате.

Характеристики температуры и влажнoсти вoздуха измеряются на высoте 2 м в тени вдали oт зданий и деревьев.
Скoрoсть ветра измеряется на высoте 10 м (на урoвне рoста челoвека скoрoсть ветра ниже в 1.5-2 раза). Если метеoстанция нахoдится в гoрoде или в лесу, тo скoрoсть ветра занижена на 2-4 м/с пo сравнению с oткрытым местoм. Скoрoсть ветра над акватoриями крупных рек и oзёр, а также на вершинах хoлмoв на 2-5 м/с выше, чем в oбычных услoвиях.
Атмoсфернoе давление в разных тoчках местнoсти мoжет значительнo oтличаться oт давления на метеoстанции, в зависимoсти oт услoвий рельефа (при пoдъёме на 10 м давление пoнижается примернo на 1 мм рт.ст.).